This is the latest recevied weather packets stored in our database for station/object KC3SOZ. If no packets are shown the sender has not sent any weather packets the latest 10 day(s).
| Time | Temp. | Humidity | Pressure | Rain* | Wind** | Luminosity | Snow |
|---|---|---|---|---|---|---|---|
| 1777665435 | 16.67° C | 47% | 1011.1 hPa | 0 mm | - | 370 W/m² | - |
| 1777665131 | 15.56° C | 46% | 1011.2 hPa | 0 mm | - | 293 W/m² | - |
| 1777664827 | 15.56° C | 51% | 1011.5 hPa | 0 mm | - | 262 W/m² | - |
| 1777664523 | 15.56° C | 52% | 1011.6 hPa | 0 mm | - | 184 W/m² | - |
| 1777664220 | 15° C | 48% | 1011.5 hPa | 0 mm | - | 228 W/m² | - |
| 1777663919 | 15° C | 48% | 1011.6 hPa | 0 mm | - | 187 W/m² | - |
| 1777663615 | 15° C | 48% | 1011.6 hPa | 0 mm | - | 180 W/m² | - |
| 1777663313 | 16.11° C | 48% | 1011.7 hPa | 0 mm | - | 147 W/m² | - |
| 1777663010 | 16.67° C | 47% | 1011.6 hPa | 0 mm | - | 786 W/m² | - |
| 1777662707 | 16.67° C | 50% | 1011.4 hPa | 0 mm | - | 832 W/m² | - |
| 1777662403 | 16.11° C | 47% | 1011.8 hPa | 0 mm | - | 804 W/m² | - |
| 1777662099 | 16.67° C | 47% | 1011.4 hPa | 0 mm | - | 798 W/m² | - |
| 1777661795 | 16.67° C | 46% | 1011.9 hPa | 0 mm | - | 786 W/m² | - |
| 1777661490 | 15.56° C | 49% | 1012.1 hPa | 0 mm | - | 875 W/m² | - |
| 1777661187 | 16.11° C | 48% | 1012.4 hPa | 0 mm | - | 267 W/m² | - |
| 1777660882 | 15.56° C | 49% | 1012.1 hPa | 0 mm | - | 886 W/m² | - |
| 1777660579 | 15.56° C | 54% | 1012.1 hPa | 0 mm | - | 255 W/m² | - |
| 1777660275 | 15° C | 52% | 1012.1 hPa | 0 mm | - | 349 W/m² | - |
| 1777659972 | 15.56° C | 49% | 1012.3 hPa | 0 mm | - | 600 W/m² | - |
| 1777659669 | 15.56° C | 48% | 1012.4 hPa | 0 mm | - | 365 W/m² | - |
| 1777659366 | 15.56° C | 48% | 1012.5 hPa | 0 mm | - | 899 W/m² | - |
| 1777659063 | 15.56° C | 49% | 1012.4 hPa | 0 mm | - | 827 W/m² | - |
| 1777658761 | 15.56° C | 56% | 1012.5 hPa | 0 mm | - | 793 W/m² | - |
| 1777658456 | 15.56° C | 54% | 1012.5 hPa | 0 mm | - | 804 W/m² | - |
| 1777658154 | 15.56° C | 52% | 1012.3 hPa | 0 mm | - | 822 W/m² | - |
* Rain latest hour (hover to see other rain measurements)
** Current wind speed in m/s (hover to see current wind gust speed)